Theta_e
314 319 319 320 318 315 318 320 319 320 320 318 317 318 317 317 317 317 327 329 331 335 337 337 339 341 344 343 343 342 341 340 339 339 338 337 338 339 339 337 334 333 334 335 328 323 322 322 322
316 320 320 313 316 316 315 316 320 319 318 317 318 317 318 318 320 322 327 330 332 335 337 336 339 341 344 343 342 341 340 339 338 336 336 336 335 336 336 334 334 332 333 333 327 321 318 319 321
319 320 315 314 312 315 317 316 317 317 317 318 318 317 318 319 321 321 326 329 331 335 336 335 338 340 344 343 341 341 339 338 336 338 339 337 337 333 335 335 334 332 332 331 327 322 316 313 315
318 317 310 313 318 317 315 315 316 317 317 317 316 317 315 318 320 325 327 328 333 335 335 335 336 339 342 342 340 340 339 337 339 340 338 336 335 334 332 332 333 331 332 330 327 321 315 309 306
318 309 313 316 316 315 316 316 317 318 317 317 316 316 315 319 323 325 326 328 331 335 336 336 335 337 340 340 339 339 338 337 338 338 337 336 334 332 331 330 332 331 330 328 325 319 312 302 301
314 308 313 316 317 315 317 316 317 317 314 316 317 316 316 318 321 323 326 327 330 333 336 336 335 336 337 338 336 336 336 337 337 336 336 335 332 330 329 329 331 330 329 325 322 315 304 301 300
315 312 315 317 316 316 317 315 316 316 313 316 315 316 314 316 318 321 324 326 329 332 334 337 337 336 336 337 337 335 335 336 337 336 336 334 333 330 328 327 329 328 327 323 320 311 302 301 300
312 311 316 314 314 317 313 313 315 315 315 314 314 313 314 316 318 320 325 326 329 330 331 334 337 338 338 337 336 336 335 333 334 334 334 335 332 329 328 325 327 327 325 321 319 307 302 300 300
311 311 313 315 315 314 312 313 312 311 314 312 314 313 312 316 319 319 322 325 328 330 331 331 333 337 338 338 338 337 336 335 333 331 335 336 332 329 329 327 323 326 323 321 317 308 302 300 299
312 310 312 313 313 316 314 314 313 313 310 311 311 311 313 316 318 318 319 321 324 328 330 331 331 332 335 338 339 339 338 337 336 333 333 335 332 330 330 329 322 323 321 319 317 311 302 300 299
314 313 314 315 314 314 314 312 313 313 313 310 311 310 311 314 315 315 316 317 318 320 326 329 331 331 332 333 334 338 338 337 335 335 334 334 331 330 329 328 324 322 320 317 316 313 304 299 299
317 315 315 316 315 314 314 314 313 313 313 311 309 308 308 308 309 311 313 314 316 318 319 324 328 331 332 332 332 332 338 337 335 336 335 333 331 329 328 327 326 322 318 316 316 312 307 300 301
314 313 313 313 311 311 312 311 312 311 310 309 308 308 305 305 305 307 307 308 310 312 316 320 325 329 331 332 332 332 331 331 332 334 335 334 330 328 327 326 326 323 319 316 314 312 308 301 299
312 312 311 311 311 311 312 311 312 311 310 309 308 305 304 304 304 304 304 305 306 309 311 314 320 325 330 331 332 333 333 333 333 333 333 334 332 328 328 326 324 323 321 317 315 313 310 306 299
312 313 311 311 311 311 310 313 311 310 308 308 307 303 304 303 302 301 301 302 303 306 310 313 315 323 328 331 331 333 333 333 334 334 334 334 329 328 329 327 325 323 321 318 315 314 312 307 301
312 311 312 312 312 312 311 312 311 309 308 308 304 303 303 301 301 300 301 301 303 306 309 313 317 322 327 330 331 332 332 331 332 333 333 332 330 329 326 324 325 324 321 318 315 313 311 308 304
310 310 311 312 311 312 311 311 309 309 308 308 304 302 302 300 300 299 299 299 301 303 307 312 317 323 326 329 330 331 330 329 329 328 327 327 327 327 326 325 325 323 320 317 315 314 311 309 306
312 311 310 312 312 310 311 309 308 308 308 307 302 301 300 299 298 297 297 298 300 301 303 306 310 317 322 324 325 326 327 327 326 325 324 325 325 325 326 326 325 322 319 315 314 313 311 309 306
310 311 311 310 310 311 311 310 310 307 307 304 302 301 300 299 297 296 296 296 298 300 302 303 306 307 312 315 316 319 319 320 321 321 322 322 323 323 323 323 321 319 317 316 314 313 310 308 304
310 312 311 310 310 311 310 309 306 306 305 303 302 300 299 298 296 296 295 294 295 296 297 299 301 304 306 307 308 309 309 306 306 312 315 315 316 318 319 321 320 316 314 313 311 310 307 306 302
313 313 312 313 309 309 309 309 309 306 303 302 300 298 298 297 296 295 294 293 293 293 294 295 296 298 300 303 306 306 305 305 306 304 306 307 309 311 312 314 315 314 312 310 309 309 306 305 302
315 311 311 312 310 311 308 313 309 307 305 302 299 297 296 296 295 295 294 293 293 293 294 294 295 296 297 299 299 299 297 296 296 298 300 302 302 303 304 306 306 307 307 306 305 305 304 302 300
312 309 310 310 309 309 309 310 308 306 306 302 299 298 296 295 294 294 293 292 292 292 293 293 293 293 294 295 296 295 294 294 294 296 297 298 299 299 299 300 301 301 300 302 304 304 303 301 299
308 309 309 306 307 311 308 311 312 309 307 302 299 297 296 294 294 293 293 293 292 291 290 290 290 290 290 291 291 291 291 289 289 289 289 289 291 292 294 295 296 298 298 298 298 299 301 300 299
308 310 314 315 312 315 314 311 312 306 305 302 299 297 295 293 292 292 292 292 291 291 289 289 289 288 288 288 288 288 287 286 286 285 285 285 285 285 286 286 288 290 293 294 296 297 298 298 299
309 310 312 311 316 314 312 317 313 303 300 299 298 296 294 293 292 291 292 292 291 290 289 288 288 287 287 286 286 286 286 285 285 285 285 284 284 284 285 285 285 285 285 287 291 293 294 295 296
311 312 310 312 311 317 314 310 306 302 299 297 296 295 295 293 292 291 291 291 291 290 288 287 287 287 286 286 286 285 285 285 285 285 285 284 284 284 284 284 284 285 285 285 285 285 287 291 292
309 308 312 310 309 315 313 313 311 305 301 298 296 295 294 293 292 291 291 290 290 289 288 287 286 286 286 286 285 285 285 285 285 285 285 285 285 284 284 285 285 284 284 285 285 285 285 285 285
307 309 309 312 309 308 306 311 306 306 301 299 297 296 295 293 292 290 290 289 289 288 288 287 287 286 286 286 286 286 286 286 286 286 285 285 284 284 284 283 283 284 284 283 283 284 284 284 284
309 308 308 313 310 308 311 311 306 305 301 298 298 297 295 294 291 289 289 289 288 288 287 287 287 286 286 286 286 286 286 286 286 285 285 284 284 284 283 283 283 283 282 282 282 282 282 283 283
Wind_Speed
8 7 6 4 4 5 2 2 1 1 2 2 1 3 2 2 2 3 2 16 7 17 25 27 25 23 22 22 20 18 16 14 14 13 12 11 11 10 8 6 4 4 6 7 4 4 5 5 6
8 5 3 2 5 4 4 4 2 3 4 2 1 2 1 0 2 2 8 16 10 17 23 27 26 25 23 22 20 19 17 15 14 12 10 8 9 10 8 7 4 4 6 4 3 2 2 3 4
6 4 3 4 4 3 4 3 3 2 1 1 1 0 1 2 2 8 5 19 14 21 22 27 26 25 23 23 21 19 17 16 14 14 14 12 11 11 11 11 11 6 4 4 2 1 0 1 4
7 6 4 4 1 4 5 5 3 2 1 1 3 2 3 0 2 5 12 14 16 23 22 26 27 25 23 21 21 20 19 17 16 18 15 14 12 10 11 11 9 7 7 5 3 3 3 3 4
4 3 4 2 3 4 2 3 3 1 0 2 1 1 3 3 3 7 13 14 17 21 21 24 28 27 25 24 22 20 19 19 17 16 15 14 12 10 9 8 10 8 7 6 5 5 4 3 4
4 3 4 1 4 5 2 3 2 2 3 2 1 3 3 2 4 5 10 12 14 18 20 21 26 27 26 25 24 22 21 20 19 18 16 15 13 11 8 10 10 9 8 7 6 5 3 2 4
5 4 3 3 3 4 2 2 3 3 1 1 3 1 3 4 9 9 9 10 13 16 18 20 22 25 25 25 24 23 22 22 21 19 18 15 14 12 8 9 9 9 8 7 7 6 5 5 6
4 4 1 2 2 2 6 8 1 2 3 2 3 3 5 4 9 10 10 9 13 18 18 19 21 23 26 26 25 24 23 23 23 21 20 18 16 14 12 9 10 10 9 8 8 7 7 6 7
3 4 1 3 1 4 5 6 6 4 2 3 3 2 4 3 10 9 10 11 14 18 22 23 22 25 26 27 27 26 25 23 22 22 21 20 19 19 16 13 12 12 11 10 10 8 8 8 8
4 3 6 4 4 2 3 1 4 4 8 4 4 6 3 5 11 12 12 17 19 22 24 26 26 25 26 27 28 28 27 25 23 23 22 22 22 22 19 15 11 14 13 13 10 10 10 9 10
4 5 4 4 4 3 4 6 3 1 7 7 9 4 4 5 11 14 19 23 24 25 25 26 28 27 25 27 29 31 29 27 26 25 23 22 24 23 20 17 14 14 15 16 14 12 12 11 10
2 6 5 4 2 4 3 4 7 6 10 8 8 7 6 7 9 17 22 29 28 25 26 27 28 29 28 26 26 30 32 31 29 28 25 24 24 23 22 19 17 16 17 18 17 15 12 12 11
3 3 4 4 9 6 2 7 6 11 13 10 8 8 8 7 13 18 16 12 14 20 25 27 28 30 29 27 26 25 27 29 30 30 28 27 27 26 23 21 19 18 19 19 19 18 16 15 13
1 3 7 7 9 5 6 3 3 9 1 10 8 10 11 10 16 19 27 25 21 12 15 21 28 30 31 28 26 26 24 23 23 25 27 27 27 26 26 24 22 22 21 20 20 20 19 17 16
2 5 7 7 2 4 6 3 6 12 6 9 7 8 9 12 20 20 21 22 24 19 12 8 18 27 30 29 26 25 24 22 24 23 23 26 25 25 26 26 24 24 22 21 21 21 21 19 18
3 2 3 3 1 1 5 7 8 10 5 10 9 8 10 12 16 21 23 23 25 24 20 6 4 14 24 26 24 23 21 19 19 21 21 23 25 26 26 26 27 25 23 23 22 22 21 21 20
3 3 5 8 2 2 3 6 8 12 4 9 8 8 8 9 17 22 23 22 24 27 26 22 12 3 10 17 15 15 15 13 14 15 16 18 20 20 24 24 25 24 23 24 23 23 22 22 22
5 4 5 6 4 3 5 8 13 11 8 4 8 7 8 11 12 19 25 24 24 27 28 29 27 18 8 4 5 6 7 8 9 11 12 14 15 16 19 21 22 22 22 23 24 25 23 23 22
3 3 6 5 6 3 6 6 14 7 2 10 7 7 9 11 13 19 24 28 29 30 31 31 30 27 18 13 9 7 6 5 3 2 4 6 9 13 15 18 20 19 21 23 25 26 25 24 20
5 4 7 7 5 1 5 12 3 8 5 6 7 8 9 10 11 18 22 28 33 34 34 32 30 26 23 19 15 12 14 18 19 12 9 6 3 5 9 14 16 17 20 22 23 25 25 23 20
6 6 4 8 5 3 3 7 2 5 8 10 11 10 11 9 9 11 19 25 30 35 35 35 32 31 27 22 15 13 13 16 17 18 17 18 13 10 7 8 12 13 15 19 22 25 26 27 22
6 5 6 3 3 4 2 4 5 4 5 8 8 7 7 7 7 11 14 21 28 30 31 33 34 34 31 27 27 27 26 23 20 20 18 15 16 15 13 12 12 12 13 14 17 20 26 27 25
7 2 2 1 3 2 3 1 6 7 5 5 5 6 6 6 6 6 14 20 24 27 28 29 30 32 30 30 30 28 28 24 22 21 20 19 18 16 15 15 13 12 13 14 16 19 20 24 27
3 4 7 4 3 2 7 7 4 5 6 7 6 6 6 6 6 9 15 19 23 23 26 27 29 29 29 29 29 28 27 26 27 28 28 26 24 23 22 18 16 15 15 16 14 14 17 21 25
4 5 3 3 2 5 3 3 6 7 0 14 14 7 7 6 6 6 9 15 19 21 22 24 25 27 27 29 30 29 28 28 28 27 26 25 26 26 25 24 23 22 18 17 17 16 16 17 21
5 7 5 6 3 4 4 5 3 4 7 10 8 7 6 6 5 5 8 11 14 16 17 19 21 22 22 24 25 24 24 25 26 25 24 23 23 23 21 23 22 22 22 21 20 19 19 19 20
4 4 3 5 2 3 4 1 1 4 6 6 7 7 7 6 6 6 8 10 12 13 14 15 16 18 18 18 18 20 20 21 21 20 22 24 23 22 23 23 23 23 22 22 21 22 22 21 21
4 6 3 2 2 5 5 5 4 8 9 7 7 8 7 7 7 6 9 11 11 11 10 11 13 13 13 14 14 15 15 16 17 18 20 22 24 25 24 23 23 25 25 23 23 24 23 23 24
1 2 2 3 5 5 2 5 3 10 14 13 9 9 10 8 7 6 11 12 11 9 7 7 8 9 10 11 12 14 16 18 20 21 22 23 25 25 26 26 26 26 26 26 25 25 26 26 27
2 6 6 5 5 3 2 8 2 8 13 12 11 9 7 6 7 9 15 13 10 8 7 5 3 3 3 4 6 9 14 18 20 22 23 23 25 26 28 29 30 32 33 33 31 32 30 28 29
Wind_Direction
335 329 324 31 55 64 297 289 153 67 4 215 192 105 183 193 163 213 170 167 193 182 183 184 183 181 177 178 179 177 177 174 169 165 167 166 162 159 159 151 147 125 104 101 101 81 88 95 103
353 357 37 79 82 69 286 273 160 208 209 172 49 88 34 327 191 164 140 186 182 179 184 187 187 183 180 182 183 183 182 182 177 174 169 174 182 166 167 156 136 155 124 120 112 100 95 104 122
354 5 76 87 108 162 178 228 209 292 213 118 21 178 192 218 328 174 203 190 186 185 186 190 191 189 186 187 188 188 186 185 181 175 165 174 179 174 171 172 176 186 163 169 157 240 321 199 177
358 18 33 78 213 250 186 206 219 149 330 18 139 346 302 246 205 188 162 183 185 186 189 193 194 194 195 197 195 194 192 188 183 177 190 192 194 191 192 197 194 191 191 196 233 267 270 246 202
43 56 50 43 282 279 299 167 154 64 240 246 165 261 266 343 128 159 168 186 193 191 193 195 198 198 198 201 203 203 198 186 188 202 211 209 198 201 207 216 196 190 192 204 228 262 276 253 187
39 92 56 344 287 292 301 282 94 41 9 1 344 302 270 262 187 184 181 193 203 198 195 199 203 204 203 203 204 203 200 192 199 204 215 217 203 211 232 200 196 203 200 209 229 264 273 189 151
104 80 188 227 265 321 263 329 122 171 134 246 190 279 287 255 213 198 187 190 198 205 205 203 205 209 211 209 208 206 203 198 202 210 215 218 213 218 223 199 195 204 201 206 231 243 201 177 160
104 94 47 268 313 325 339 329 334 341 297 330 175 244 281 273 199 191 197 196 201 207 214 216 211 210 210 213 214 213 210 208 209 213 219 214 212 214 228 241 197 205 207 203 222 227 194 178 169
89 60 229 237 48 295 322 10 323 299 342 349 280 183 280 276 183 195 199 209 212 214 216 217 221 217 215 216 215 216 217 216 217 216 217 216 220 215 230 251 216 212 215 208 220 215 198 183 179
89 117 227 202 161 268 276 244 306 356 325 283 278 295 303 186 193 206 219 224 218 220 221 220 220 223 221 221 220 217 217 217 223 220 218 218 222 227 237 249 252 220 224 219 219 214 203 193 193
162 191 216 255 203 205 265 297 210 154 293 250 273 262 283 233 232 236 242 244 239 233 227 223 222 223 225 225 226 222 220 220 220 225 222 221 226 227 232 241 241 235 229 227 227 219 211 202 203
162 250 232 273 332 322 280 312 307 198 246 262 277 274 265 255 247 252 263 267 255 241 236 229 225 223 224 228 230 226 224 223 221 222 221 223 225 229 238 242 243 239 234 234 235 234 228 218 219
211 283 281 278 285 259 254 244 250 269 264 286 295 326 353 1 6 16 10 345 309 278 262 241 228 226 227 225 226 226 227 231 231 228 227 225 225 233 239 246 245 245 237 236 238 237 233 229 229
163 288 277 274 269 264 247 298 147 278 70 308 323 37 51 42 22 22 19 9 6 337 277 258 239 230 226 226 227 225 227 231 233 231 229 227 226 238 241 247 245 246 247 245 244 242 241 240 237
332 315 315 274 267 228 162 314 228 257 313 292 359 75 64 47 35 27 16 10 11 9 350 264 240 231 227 226 229 226 224 225 226 229 230 228 231 242 244 249 246 247 248 247 245 241 241 240 240
325 29 326 273 155 173 135 249 272 271 295 298 45 74 55 40 36 28 28 28 27 30 33 39 225 233 229 224 226 224 225 227 225 221 228 235 242 248 245 254 247 250 244 244 244 242 240 242 244
346 230 212 306 224 126 193 252 267 287 340 301 78 65 63 44 32 24 31 33 37 43 49 52 63 101 224 222 223 220 225 221 229 238 248 246 248 246 248 250 253 248 244 243 241 241 240 244 248
215 214 239 232 267 30 256 249 261 279 311 356 115 83 68 55 33 24 34 44 45 51 55 59 59 67 83 146 175 200 209 208 232 248 260 255 257 258 252 249 250 245 243 241 233 236 241 249 255
176 214 240 258 257 225 257 277 290 332 13 101 99 97 81 63 45 35 37 46 55 55 53 52 55 54 65 72 72 73 63 56 85 212 248 269 261 258 263 257 245 245 246 248 241 237 239 244 251
238 247 259 272 260 189 292 292 40 23 35 72 91 70 71 62 42 35 33 40 48 52 51 54 57 58 59 59 62 79 85 70 54 53 52 48 9 291 278 258 260 250 244 244 241 237 239 245 244
220 202 235 234 344 295 330 293 184 58 71 65 54 62 60 62 53 36 37 37 43 48 51 52 55 54 56 63 77 84 75 56 50 45 40 36 33 25 350 290 275 274 266 258 252 246 243 248 245
277 208 228 187 113 228 43 278 304 148 84 65 70 64 63 58 53 54 52 53 57 57 59 60 59 58 58 60 63 65 63 57 47 45 47 50 40 35 24 14 355 327 299 286 278 266 254 251 252
230 100 131 168 172 74 295 298 259 132 148 131 107 98 93 88 81 64 56 60 60 59 59 59 58 58 60 62 65 64 65 61 56 49 42 38 37 31 25 16 1 349 338 321 292 279 273 264 260
110 51 37 48 101 283 215 180 263 187 183 148 144 138 126 105 92 85 82 75 68 63 60 60 60 57 56 56 58 61 60 56 54 50 45 41 38 32 26 15 5 351 338 334 328 309 289 278 271
87 70 309 335 360 231 139 146 254 321 347 155 151 147 129 132 116 94 80 76 73 67 64 63 61 58 54 55 52 52 51 50 49 46 45 41 36 32 27 25 21 14 357 341 337 322 311 302 288
173 165 165 222 215 268 327 238 290 11 75 104 117 133 139 141 123 123 121 104 90 81 78 80 74 67 59 56 54 51 50 47 39 32 30 27 26 24 21 15 14 11 9 5 355 337 327 316 302
186 176 170 106 352 283 247 63 52 74 82 116 136 143 174 163 168 160 128 109 96 86 76 70 67 76 69 64 57 48 41 34 32 24 17 8 6 6 5 6 0 355 356 357 355 352 347 334 318
151 167 81 8 171 241 272 264 207 187 179 171 173 192 194 195 185 159 142 126 116 105 97 85 78 66 63 62 54 43 28 25 23 14 8 1 353 349 351 352 350 344 341 342 341 339 339 337 330
130 196 177 170 155 180 252 257 219 175 180 183 198 207 205 202 184 166 152 142 137 135 114 91 70 59 45 36 29 25 19 4 7 1 356 351 341 343 341 340 337 334 331 329 330 328 327 324 322
216 192 168 195 223 240 169 263 336 182 173 175 199 214 214 195 177 165 159 158 151 149 144 130 118 94 71 38 24 10 4 358 354 346 343 337 334 336 332 330 327 323 322 322 322 319 316 312 309